Main page
Satellite images Climate Cyclones Lightning AirportsFAQ Languages Contact Newsletter About
Weather : Europe Africa North America South America Asia Australia-Oceania Others

, Bangkok-Suvarnabhumi, Suvarnabhumi Airport

latitude: , longitude: Thailand, elevation: 13-40-52N m


METAR: VTBS 221030Z 08009KT 050V120 9999 FEW020TCU SCT040 BKN100 31/22 Q1008 NOSIG